SL-12 R/B(AUX MOTOR), 32280

Orbit data source: Space-Track

SL-12 R/B(AUX MOTOR), 32280 is space debris in HEO originally from a launch on Fri, 26 Oct 2007 UTC launched from the Tyuratam Missile And Space Complex (TTMTR). Debris objects in space refer to the collection of defunct objects orbiting the Earth. Examples of debris include non-operational satellites, rocket bodies, and fragments generated from explosions, collisions, or faulty payload assembly.

Loading next visibility...
Identifier
32280, 2007-052F
Orbit
HEO
Country
Flag of CISCIS
Related business
Manufacturer
RKKE
Mission
Spacecraft
Bus & Motor
SOZ, Unknown motor
Mass
56 kg wet, 56 kg dry
Launch date (UTC)
2007-10-26 (18 years ago)
Launch vehicle
Unknown
Launch site
Tyuratam Missile And Space Complex (TTMTR)
Object type
Payload
Rocket body
Debris
Shape & HBR
Cyl, 0.6 m
Radar Cross Section
0.660 m², Medium (>0.1 m² and < 1m²)

Expand to show TLE details & history
Last TLE update: 11 hours ago

TLE from 11 hours ago
0 SL-12 R/B(AUX MOTOR)
1 32280U 07052F   26036.53463117 -.00000059  00000-0 -47682-4 0  9993
2 32280  65.3353   9.9639 5632598 225.6057  71.7078  4.21923538187466
Epoch: 2026-02-05T12:49Z
TLE epoch observation values (Epoch: 2026-02-05T12:49:52.133Z)
Latitude
0.00003°
Longitude
41.79496°
Altitude
11,867.648 km
Speed
4.366 km/s
True Right ascension
00h 39m 47s
True Declination
0° 00' 00"
Sunlit
Object was in daylight at epoch
Visualization orbit readout
Latitude
Unknown
Longitude
Unknown
Altitude
Unknown
Speed
Unknown
Apparent Right ascension
Unknown
Apparent Declination
Unknown
Sunlit
N/A
Visualization observer readout
Local Sidereal Time
02:12:49
Azimuth
Unknown
Elevation
Unknown
Doppler factor
Unknown
Orbital elements
Apogee altitude
18,909.786 km
Perigee altitude
686.749 km
Semi-major axis
16,176.405 km
Eccentricity
0.56326
Inclination
65.3353°
RAAN
9.9639°
Arg. of periapsis
225.6057°
True anomaly
134.49212°
Mean anomaly
71.7078°
Eccentric anomaly
103.13578°
Mean motion
1.05492 °/min
Orbital period
341.26 mins
BSTAR
-0.000047682
Loading maneuver chart data...
Computing Atmospheric mass density...
Loading historical data...
Loading historical data...
Loading historical data...
Loading historical data...
Loading historical data...
Loading historical data...
Loading historical data...

Documentation

Showing up to 5 results
|